Flag for France Weather past 2 weeks in Rennes, France

Now
68 °F

Partly sunny.


Feels Like: 68 °F
Forecast: 53 / 75 °F
Wind: 2 mph from North

Location: Rennes Airport

Current Time: Oct 2, 2014 at 1:20:59 PM

Latest Report: Oct 2, 2014 at 1:00 PM


Visibility: N/A

Pressure: 30.36 "Hg

Humidity: 78%

Dew point: 61 °F

Location of RennesLocation

Historic Weather in Rennes — Graph

°F

Rennes temperature yesterday

Maximum temperature yesterday: 73 °F (at 3:30 PM)
Minimum temperature yesterday: 52 °F (at 4:00 AM)
Average temperature yesterday: 61 °F

Past Weeks' High & Low Weather Summary

 TemperatureHumidityPressure
High81 °F (Sep 18, 6:30 PM)100% (Sep 20, 6:00 AM)30.36 "Hg (Sep 20, 6:00 AM)
Low45 °F (Sep 23, 5:00 AM)41% (Sep 26, 4:00 PM)29.68 "Hg (Sep 17, 12:30 PM)
Average62 °F79%30.11 "Hg
* Reported Sep 17 12:00 Noon — Oct 2 12:00 Noon, Rennes, Weather by CustomWeather, © 2014

Note: Actual official high and low records may vary slightly from our data, if they occured in-between our weather recording intervals... More about our weather records

Advertising

Rennes weather history for previous 24 hours

 ConditionsComfort  
Time TempWeatherWind HumidityBarometerVisibility
12:00 PM
Oct 2
68 °FPartly sunny.1 mph78%30.36 "HgN/A
11:30 AM64 °FLow clouds.No wind88%30.36 "HgN/A
11:00 AM63 °FLow clouds.No wind94%30.36 "HgN/A
10:30 AM61 °FFog.1 mph100%30.36 "Hg2 mi
10:00 AM61 °FFog.2 mph94%30.36 "Hg1 mi
9:30 AM61 °FFog.2 mph94%30.36 "Hg0 mi
9:00 AM61 °FFog.3 mph94%30.36 "Hg1 mi
8:30 AM61 °FFog.2 mph94%30.36 "Hg1 mi
8:00 AM61 °FFog.3 mph94%30.36 "Hg3 mi
7:30 AM61 °FFog.2 mph94%30.36 "Hg1 mi
7:00 AM61 °FFog.2 mph100%30.36 "Hg3 mi
6:30 AM61 °FMostly cloudy.2 mph100%30.36 "Hg4 mi
6:00 AM61 °FFog.2 mph100%30.36 "Hg2 mi
5:30 AM61 °FClear.No wind100%30.36 "Hg5 mi
5:00 AM61 °FMostly cloudy.No wind94%30.36 "Hg4 mi
4:30 AM61 °FClear.No wind100%30.36 "Hg4 mi
4:00 AM63 °FClear.3 mph94%30.36 "Hg5 mi
3:30 AM61 °FClear.3 mph100%30.36 "Hg4 mi
3:00 AM63 °FClear.3 mph94%30.36 "Hg4 mi
2:30 AM61 °FLow clouds.1 mph100%30.36 "Hg4 mi
2:00 AM63 °FFog.2 mph94%30.36 "Hg3 mi
1:30 AM63 °FMostly cloudy.3 mph94%30.36 "Hg4 mi
1:00 AM63 °FMostly cloudy.2 mph94%30.36 "Hg5 mi
12:30 AM61 °FOvercast.2 mph100%30.36 "Hg5 mi
12:00 AM63 °FOvercast.2 mph94%30.36 "HgN/A
11:30 PM
Oct 1
63 °FMostly cloudy.No wind94%30.36 "HgN/A
11:00 PM63 °FOvercast.2 mph94%30.36 "HgN/A
10:30 PM63 °FOvercast.No wind94%30.36 "HgN/A
10:00 PM63 °FMostly cloudy.No wind94%30.36 "HgN/A
9:30 PM63 °FDrizzle. Mostly cloudy.5 mph94%30.36 "Hg6 mi
9:00 PM63 °FPartly cloudy.5 mph94%30.36 "Hg5 mi
8:30 PM64 °FBroken clouds.3 mph88%30.36 "HgN/A
8:00 PM66 °FPartly sunny.5 mph83%30.33 "HgN/A
7:30 PM66 °FCloudy.8 mph83%30.33 "HgN/A
7:00 PM70 °FMostly cloudy.7 mph73%30.33 "HgN/A
6:30 PM70 °FMore clouds than sun.3 mph69%30.33 "HgN/A
6:00 PM72 °FOvercast.5 mph65%30.30 "HgN/A
5:30 PM72 °FPartly sunny.8 mph65%30.30 "HgN/A
5:00 PM72 °FPartly sunny.7 mph65%30.30 "HgN/A
4:30 PM72 °FMostly cloudy.2 mph65%30.30 "HgN/A
4:00 PM70 °FPartly sunny.3 mph69%30.33 "HgN/A
3:30 PM73 °FClear.7 mph61%30.33 "HgN/A
3:00 PM72 °FOvercast.6 mph65%30.33 "HgN/A
2:30 PM70 °FBroken clouds.7 mph69%30.33 "HgN/A
2:00 PM70 °FMostly cloudy.7 mph73%30.33 "HgN/A
1:30 PM68 °FMostly cloudy.8 mph78%30.36 "HgN/A
1:00 PM66 °FMostly cloudy.8 mph83%30.36 "HgN/A
Weather by CustomWeather, © 2014

See weather overviewHow to use our weather pages